FENGYUN 1C DEB

Satellite information

Favourite Embed

Satellite Type and Status

DEBRISIN ORBIT

Key statistics

Satellite FENGYUN 1C DEB at a glance.

Uptime

9494

Days in orbit

Revolutions

≈ 14.1

Per day

Orbit

SSO

Sun Synchronous Orbit

Inclination

99.0

Latest

Satellite identification and parameters

Extended collection of information and parameters for FENGYUN 1C DEB.

Object identification

Identified? True

Debris? True

Object name: FENGYUN 1C DEB

International designator: 1999-025AZE

Object number (NORAD): 30916

Object ID (CCSDS): 30916

Country: PEOPLES REPUBLIC OF CHINA (PRC)

Current information (Y/N): Y

RCS size: SMALL

Orbital parameters

Period: 102.278 minutes

Inclination: 99.0218 deg

SMA: 7244.63 km

Apoapsis: 914.006 km

Periapsis: 818.984 km

RAAN: 185.5217 deg

Eccentricy: 0.0065581

Argument of periapsis: 157.8607 deg

Mean anomaly: 325.5135 deg

Mean motion: 14.07921523 rev/day

Mean motion (dot): 0.00002922 rev/day2

B* drag term: 0.0017126 1/REarth

Two-line elements (TLE)

Creation date: May 5, 2025, 6:56 a.m.

Reference frame: TEME

Reference center: EARTH

Epoch: May 4, 2025, 11:31 p.m. UTC

TLE line 0: 0 FENGYUN 1C DEB

TLE line 1: 1 30916U 99025AZE 25124.98000178 .00002922 00000-0 17126-2 0 9995

TLE line 2: 2 30916 99.0218 185.5217 0065581 157.8607 325.5135 14.07921523927497

Live tracking on map

Real-time ground track for satellite FENGYUN 1C DEB.

In-orbit conjunctions

A list of the most updated potential collisions computed for object FENGYUN 1C DEB.

Target Orbit TCA Probability of collision Miss distance Type
AUREOLE 3 LEO 2025-03-29 14:15:46 0.0001950602 335.0 (m) PAYLOAD
CZ-6A DEB LEO 2025-02-05 02:57:47 0.0002096605 482.0 (m) DEBRIS
METEOR 2-17 DEB LEO 2024-08-13 16:48:38 0.0001073502 72.0 (m) DEBRIS

Associated space launch

Chinese polar orbiting meteorological satellite

FENGYUN 1C DEB was lifted into orbit during the mission ‘Long March 4B | Feng Yun 1C’, on board a Long March 4B space rocket.

The launch took place on May 10, 1999, 1:33 a.m. from Launch Complex 7.

For more information about the launch, click the button.

Launch to space Long March 4B | Feng Yun 1C
Long March 4B | Feng Yun 1C

Agency: N/A

Status: Launch Successful

Launch date: May 10, 1999, 1:33 a.m. UTC

Rocket: Long March 4B

Launch pad: Launch Complex 7

Location: Taiyuan Satellite Launch Center, People's Republic of China

...

Latest news about this satellite

There are no fresh news available about this satellite. Check back as we update our databases every day.


Newsletter sign-up

Weekly statistics, charts and insights to help you stay on top of the space industry.